AAL1250 KORD-KMIA

Flight info

Callsign AAL1250
Flight time 2h 27m
Altitude 37000
Route DENNT DARCY DREGS DONVE BWG BBABE SARGE HONID FROGZ5
Aircraft B738/M-SDE2E3FGHIRWXY/LB1

Departure

Time 2026-04-30 18:37
Airport Chicago O'Hare International Airport (KORD)

Arrival

Time 2026-04-30 21:05
Airport Miami International Airport (KMIA)
Time Latitude Longitude Altitude Speed Heading
2026-04-30 17:44 41.97357 -87.88458 652 ft 0 kts 359°
2026-04-30 18:07 41.97316 -87.88490 653 ft 2 kts 66°
2026-04-30 18:08 41.97312 -87.88521 653 ft 0 kts 91°
2026-04-30 18:11 41.97358 -87.88580 652 ft 0 kts 360°
2026-04-30 18:28 41.97332 -87.88586 652 ft 2 kts 31°
2026-04-30 18:28 41.97320 -87.88599 653 ft 2 kts 53°
2026-04-30 18:28 41.97312 -87.88629 653 ft 0 kts 89°
2026-04-30 18:29 41.97312 -87.88638 653 ft 0 kts 91°
2026-04-30 18:31 41.97312 -87.88631 653 ft 1 kts 91°
2026-04-30 18:32 41.97311 -87.88619 653 ft 0 kts 92°
2026-04-30 18:32 41.97311 -87.88618 653 ft 0 kts 93°
2026-04-30 18:32 41.97292 -87.88589 653 ft 4 kts 165°
2026-04-30 18:33 41.97266 -87.88615 654 ft 7 kts 245°
2026-04-30 18:33 41.97223 -87.88644 654 ft 4 kts 159°
2026-04-30 18:33 41.97199 -87.88603 655 ft 6 kts 108°
2026-04-30 18:34 41.97194 -87.88541 655 ft 7 kts 88°
2026-04-30 18:34 41.97130 -87.88443 656 ft 8 kts 163°
2026-04-30 18:34 41.97072 -87.88442 656 ft 9 kts 180°
2026-04-30 18:35 41.97017 -87.88442 656 ft 8 kts 180°
2026-04-30 18:35 41.96956 -87.88454 656 ft 9 kts 199°
2026-04-30 18:35 41.96911 -87.88498 656 ft 7 kts 246°
2026-04-30 18:36 41.96907 -87.88519 656 ft 0 kts 263°
2026-04-30 18:36 41.96907 -87.88522 656 ft 1 kts 263°
2026-04-30 18:37 41.96907 -87.88713 656 ft 65 kts 270°
2026-04-30 18:37 41.96909 -87.89790 657 ft 161 kts 270°
2026-04-30 18:37 41.96905 -87.91567 1201 ft 203 kts 271°
2026-04-30 18:37 41.96912 -87.93310 2753 ft 189 kts 270°
2026-04-30 18:38 41.96790 -87.94951 3869 ft 186 kts 251°
2026-04-30 18:38 41.95945 -87.96293 4708 ft 201 kts 212°
2026-04-30 18:38 41.94582 -87.96802 5534 ft 217 kts 184°
2026-04-30 18:38 41.93026 -87.96462 6329 ft 237 kts 166°
2026-04-30 18:39 41.91434 -87.95713 7061 ft 258 kts 163°
2026-04-30 18:39 41.89707 -87.94852 7982 ft 273 kts 164°
2026-04-30 18:39 41.87869 -87.93970 8797 ft 291 kts 165°
2026-04-30 18:39 41.85928 -87.93056 9749 ft 302 kts 166°
2026-04-30 18:40 41.83945 -87.92123 10683 ft 313 kts 166°
2026-04-30 18:40 41.81834 -87.91132 11469 ft 330 kts 165°
2026-04-30 18:40 41.79609 -87.90089 12227 ft 347 kts 165°
2026-04-30 18:40 41.77265 -87.88993 12893 ft 365 kts 165°
2026-04-30 18:41 41.74869 -87.87871 13818 ft 375 kts 165°
2026-04-30 18:41 41.72406 -87.86710 14817 ft 381 kts 165°
2026-04-30 18:41 41.69896 -87.85529 15799 ft 386 kts 166°
2026-04-30 18:41 41.67345 -87.84330 16713 ft 393 kts 166°
2026-04-30 18:42 41.64770 -87.83123 17627 ft 398 kts 166°
2026-04-30 18:42 41.59473 -87.80656 19351 ft 410 kts 166°
2026-04-30 18:42 41.56788 -87.79407 20214 ft 415 kts 166°
2026-04-30 18:45 41.27606 -87.72367 27444 ft 444 kts 190°
2026-04-30 18:45 41.24495 -87.72452 28116 ft 448 kts 190°
2026-04-30 18:45 41.21402 -87.72518 28660 ft 453 kts 189°
2026-04-30 18:46 41.18213 -87.72456 29320 ft 460 kts 186°
2026-04-30 18:46 41.15007 -87.72168 29905 ft 467 kts 184°
2026-04-30 18:46 41.11778 -87.71748 30560 ft 470 kts 183°
2026-04-30 18:46 41.08560 -87.71262 31522 ft 463 kts 182°
2026-04-30 18:47 41.05370 -87.70760 32271 ft 459 kts 182°
2026-04-30 18:47 41.02188 -87.70271 32879 ft 457 kts 182°
2026-04-30 18:47 40.99071 -87.69806 33439 ft 454 kts 183°
2026-04-30 18:47 40.95931 -87.69351 33923 ft 453 kts 183°
2026-04-30 18:48 40.92786 -87.68908 34443 ft 451 kts 183°
2026-04-30 18:48 40.89679 -87.68482 34830 ft 454 kts 183°
2026-04-30 18:48 40.86500 -87.68053 35292 ft 454 kts 183°
2026-04-30 18:48 40.83389 -87.67632 35778 ft 452 kts 183°
2026-04-30 18:49 40.80243 -87.67208 36178 ft 453 kts 183°
2026-04-30 18:49 40.77117 -87.66791 36518 ft 455 kts 183°
2026-04-30 18:49 40.73985 -87.66376 36863 ft 457 kts 183°
2026-04-30 18:49 40.70806 -87.65952 37264 ft 457 kts 182°
2026-04-30 18:50 40.67678 -87.65533 37653 ft 456 kts 183°
2026-04-30 18:50 40.64520 -87.65115 37939 ft 458 kts 182°
2026-04-30 18:50 40.61288 -87.64690 38014 ft 463 kts 182°
2026-04-30 18:51 40.54919 -87.63845 38028 ft 459 kts 182°
2026-04-30 18:51 40.48564 -87.62989 38034 ft 456 kts 183°
2026-04-30 18:52 40.42229 -87.62151 38033 ft 457 kts 183°
2026-04-30 18:52 40.35931 -87.61320 38045 ft 456 kts 183°
2026-04-30 18:53 40.29572 -87.60732 38049 ft 450 kts 188°
2026-04-30 18:53 40.23400 -87.60943 38058 ft 445 kts 192°
2026-04-30 18:54 40.17200 -87.61398 38058 ft 446 kts 193°
2026-04-30 18:54 40.11024 -87.61827 38059 ft 446 kts 193°
2026-04-30 18:55 40.04842 -87.62212 38051 ft 444 kts 193°
2026-04-30 18:55 39.98584 -87.62162 38048 ft 456 kts 183°
2026-04-30 18:55 39.95443 -87.61440 38057 ft 466 kts 176°
2026-04-30 18:56 39.86050 -87.57709 38056 ft 474 kts 170°
2026-04-30 18:57 39.76625 -87.53567 38072 ft 475 kts 171°
2026-04-30 18:57 39.70376 -87.50919 38082 ft 476 kts 172°
2026-04-30 18:58 39.60924 -87.46999 38080 ft 474 kts 172°
2026-04-30 18:59 39.51480 -87.43122 38086 ft 476 kts 172°
2026-04-30 19:00 39.38880 -87.37967 38087 ft 477 kts 173°
2026-04-30 19:01 39.26173 -87.32782 38075 ft 475 kts 174°
2026-04-30 19:02 39.16697 -87.28931 38075 ft 479 kts 174°
2026-04-30 19:03 39.04023 -87.23801 38086 ft 479 kts 174°
2026-04-30 19:04 38.91321 -87.18681 38086 ft 480 kts 174°
2026-04-30 19:05 38.78632 -87.13567 38101 ft 480 kts 175°
2026-04-30 19:06 38.65881 -87.08464 38104 ft 478 kts 175°
2026-04-30 19:06 38.56361 -87.04665 38097 ft 476 kts 175°
2026-04-30 19:07 38.46833 -87.00879 38091 ft 479 kts 176°
2026-04-30 19:08 38.34090 -86.95810 38099 ft 478 kts 176°
2026-04-30 19:09 38.24524 -86.92037 38106 ft 480 kts 176°
2026-04-30 19:09 38.18162 -86.89517 38110 ft 478 kts 176°
2026-04-30 19:10 38.05446 -86.84513 38091 ft 478 kts 177°
2026-04-30 19:11 37.95849 -86.80753 38090 ft 479 kts 177°
2026-04-30 19:12 37.89430 -86.78245 38085 ft 482 kts 177°
2026-04-30 19:12 37.83000 -86.75732 38091 ft 479 kts 177°
2026-04-30 19:13 37.70282 -86.70777 38077 ft 480 kts 177°
2026-04-30 19:14 37.63902 -86.68296 38078 ft 481 kts 177°
2026-04-30 19:14 37.57476 -86.65798 38071 ft 481 kts 177°
2026-04-30 19:15 37.51058 -86.63308 38163 ft 482 kts 177°
2026-04-30 19:15 37.41460 -86.59595 38067 ft 476 kts 177°
2026-04-30 19:16 37.35099 -86.57142 38066 ft 480 kts 177°
2026-04-30 19:17 37.25425 -86.53449 38068 ft 484 kts 177°
2026-04-30 19:17 37.15859 -86.49766 38073 ft 480 kts 177°
2026-04-30 19:18 37.06180 -86.46076 38069 ft 483 kts 177°
2026-04-30 19:19 36.99794 -86.43621 38076 ft 478 kts 177°
2026-04-30 19:19 36.90196 -86.39913 38072 ft 485 kts 176°
2026-04-30 19:20 36.83794 -86.37322 38067 ft 481 kts 176°
2026-04-30 19:21 36.74155 -86.33437 38052 ft 482 kts 177°
2026-04-30 19:22 36.61348 -86.28328 38049 ft 485 kts 177°
2026-04-30 19:23 36.42065 -86.20678 38060 ft 482 kts 177°
2026-04-30 19:24 36.32445 -86.16872 38052 ft 489 kts 177°
2026-04-30 19:25 36.16316 -86.10512 38035 ft 489 kts 177°
2026-04-30 19:26 36.03458 -86.05453 38030 ft 487 kts 178°
2026-04-30 19:27 35.93697 -86.01664 38024 ft 487 kts 177°
2026-04-30 19:28 35.84025 -85.97871 38033 ft 485 kts 177°
2026-04-30 19:29 35.71084 -85.92840 38041 ft 488 kts 177°
2026-04-30 19:30 35.58077 -85.87802 38036 ft 490 kts 176°
2026-04-30 19:31 35.45193 -85.82810 38024 ft 491 kts 176°
2026-04-30 19:31 35.35387 -85.79041 38022 ft 487 kts 176°
2026-04-30 19:32 35.28886 -85.76543 38013 ft 490 kts 176°
2026-04-30 19:32 35.22376 -85.74045 38020 ft 487 kts 176°
2026-04-30 19:33 35.15904 -85.71561 38013 ft 487 kts 176°
2026-04-30 19:33 35.09396 -85.69081 38004 ft 493 kts 176°
2026-04-30 19:34 35.02821 -85.66574 37995 ft 491 kts 175°
2026-04-30 19:35 34.93133 -85.62852 37988 ft 487 kts 176°
2026-04-30 19:35 34.86638 -85.60394 37981 ft 490 kts 175°
2026-04-30 19:36 34.80165 -85.57938 37983 ft 487 kts 175°
2026-04-30 19:36 34.70413 -85.54057 37976 ft 495 kts 173°
2026-04-30 19:37 34.63937 -85.51323 37975 ft 491 kts 173°
2026-04-30 19:37 34.57475 -85.48612 37971 ft 492 kts 173°
2026-04-30 19:38 34.51004 -85.45942 37979 ft 492 kts 174°
2026-04-30 19:38 34.44556 -85.43267 37969 ft 489 kts 173°
2026-04-30 19:39 34.38073 -85.40603 37965 ft 491 kts 174°
2026-04-30 19:39 34.31632 -85.37962 37962 ft 491 kts 173°
2026-04-30 19:40 34.25190 -85.35329 37963 ft 490 kts 173°
2026-04-30 19:40 34.18757 -85.32698 37963 ft 488 kts 174°
2026-04-30 19:41 34.12306 -85.30070 37950 ft 489 kts 174°
2026-04-30 19:41 34.05876 -85.27435 37952 ft 486 kts 174°
2026-04-30 19:42 33.99421 -85.24813 37950 ft 491 kts 174°
2026-04-30 19:42 33.92946 -85.22182 37959 ft 490 kts 173°
2026-04-30 19:43 33.86541 -85.19575 37952 ft 488 kts 173°
2026-04-30 19:44 33.76849 -85.15646 37955 ft 488 kts 173°
2026-04-30 19:44 33.70413 -85.13043 37961 ft 490 kts 173°
2026-04-30 19:45 33.63958 -85.10442 37963 ft 490 kts 173°
2026-04-30 19:45 33.57531 -85.07856 37960 ft 488 kts 173°
2026-04-30 19:46 33.51120 -85.05283 37954 ft 486 kts 173°
2026-04-30 19:46 33.44677 -85.02696 37946 ft 490 kts 174°
2026-04-30 19:47 33.38216 -85.00109 37932 ft 492 kts 173°
2026-04-30 19:47 33.31733 -84.97509 37926 ft 488 kts 173°
2026-04-30 19:48 33.25314 -84.94931 37927 ft 489 kts 173°
2026-04-30 19:48 33.18868 -84.92365 37929 ft 490 kts 173°
2026-04-30 19:49 33.12438 -84.89793 37928 ft 483 kts 173°
2026-04-30 19:49 33.02818 -84.85985 37923 ft 487 kts 173°
2026-04-30 19:50 32.96455 -84.83464 37924 ft 483 kts 173°
2026-04-30 19:50 32.90025 -84.80917 37925 ft 488 kts 173°
2026-04-30 19:51 32.83560 -84.78358 37926 ft 486 kts 173°
2026-04-30 19:51 32.77140 -84.75810 37921 ft 488 kts 173°
2026-04-30 19:52 32.70715 -84.73272 37915 ft 485 kts 173°
2026-04-30 19:52 32.64320 -84.70759 37907 ft 487 kts 173°
2026-04-30 19:53 32.57917 -84.68245 37901 ft 485 kts 173°
2026-04-30 19:53 32.51493 -84.65729 37901 ft 487 kts 173°
2026-04-30 19:54 32.45071 -84.63214 37901 ft 485 kts 173°
2026-04-30 19:54 32.38641 -84.60693 37896 ft 486 kts 173°
2026-04-30 19:55 32.32234 -84.58184 37894 ft 485 kts 172°
2026-04-30 19:55 32.25814 -84.55917 37895 ft 480 kts 177°
2026-04-30 19:56 32.19333 -84.54139 37884 ft 474 kts 179°
2026-04-30 19:56 32.12904 -84.52483 37886 ft 475 kts 179°
2026-04-30 19:57 32.06416 -84.50784 37881 ft 474 kts 179°
2026-04-30 19:57 32.00028 -84.49075 37881 ft 475 kts 179°
2026-04-30 19:58 31.93540 -84.47337 37878 ft 475 kts 178°
2026-04-30 19:58 31.87105 -84.45603 37882 ft 478 kts 178°
2026-04-30 19:59 31.80661 -84.43854 37878 ft 474 kts 178°
2026-04-30 20:00 31.70959 -84.41222 37881 ft 477 kts 178°
2026-04-30 20:00 31.64536 -84.39484 37882 ft 476 kts 178°
2026-04-30 20:01 31.54830 -84.36975 37886 ft 474 kts 179°
2026-04-30 20:01 31.48372 -84.35365 37884 ft 476 kts 179°
2026-04-30 20:02 31.38701 -84.32938 37889 ft 474 kts 179°
2026-04-30 20:03 31.28961 -84.30497 37891 ft 479 kts 179°
2026-04-30 20:03 31.22479 -84.28861 37893 ft 475 kts 178°
2026-04-30 20:04 31.15981 -84.27228 37890 ft 478 kts 179°
2026-04-30 20:05 31.06254 -84.24790 37885 ft 479 kts 178°
2026-04-30 20:05 30.96465 -84.22334 37885 ft 477 kts 178°
2026-04-30 20:06 30.89970 -84.20709 37880 ft 478 kts 178°
2026-04-30 20:06 30.83496 -84.19093 37876 ft 477 kts 178°
2026-04-30 20:07 30.76981 -84.17470 37875 ft 479 kts 178°
2026-04-30 20:08 30.67199 -84.15031 37874 ft 480 kts 177°
2026-04-30 20:08 30.60666 -84.13406 37876 ft 480 kts 177°
2026-04-30 20:09 30.54160 -84.11803 37876 ft 478 kts 178°
2026-04-30 20:09 30.44296 -84.09370 37876 ft 477 kts 178°
2026-04-30 20:10 30.37841 -84.07416 37874 ft 490 kts 169°
2026-04-30 20:10 30.34648 -84.05887 37874 ft 497 kts 162°
2026-04-30 20:11 30.25525 -84.00060 37868 ft 503 kts 156°
2026-04-30 20:11 30.19540 -83.95897 37863 ft 499 kts 156°
2026-04-30 20:12 30.10549 -83.89859 37865 ft 504 kts 156°
2026-04-30 20:13 30.04485 -83.85853 37866 ft 500 kts 156°
2026-04-30 20:13 29.98407 -83.81851 37867 ft 501 kts 156°
2026-04-30 20:14 29.92398 -83.77904 37868 ft 498 kts 156°
2026-04-30 20:14 29.86361 -83.73943 37865 ft 497 kts 156°
2026-04-30 20:15 29.80318 -83.69975 37872 ft 499 kts 156°
2026-04-30 20:15 29.74280 -83.66011 37870 ft 501 kts 156°
2026-04-30 20:16 29.68229 -83.62045 37870 ft 499 kts 155°
2026-04-30 20:16 29.62200 -83.58099 37873 ft 498 kts 155°
2026-04-30 20:17 29.56188 -83.54180 37877 ft 497 kts 155°
2026-04-30 20:17 29.50171 -83.50261 37878 ft 495 kts 156°
2026-04-30 20:18 29.44156 -83.46339 37881 ft 497 kts 155°
2026-04-30 20:18 29.38157 -83.42441 37886 ft 498 kts 155°
2026-04-30 20:19 29.32131 -83.38529 37888 ft 497 kts 155°
2026-04-30 20:19 29.26119 -83.34627 37890 ft 495 kts 156°
2026-04-30 20:20 29.19972 -83.31117 37889 ft 491 kts 161°
2026-04-30 20:20 29.13734 -83.28031 37896 ft 491 kts 163°
2026-04-30 20:21 29.07449 -83.24960 37896 ft 491 kts 162°
2026-04-30 20:21 29.01141 -83.21829 37589 ft 494 kts 161°
2026-04-30 20:21 28.98002 -83.20262 37291 ft 491 kts 161°
2026-04-30 20:22 28.94895 -83.18700 36987 ft 486 kts 161°
2026-04-30 20:22 28.88799 -83.15623 36906 ft 476 kts 161°
2026-04-30 20:23 28.82713 -83.12565 36905 ft 487 kts 161°
2026-04-30 20:23 28.76484 -83.09431 36894 ft 484 kts 161°
2026-04-30 20:24 28.70341 -83.06338 36897 ft 484 kts 161°
2026-04-30 20:24 28.64161 -83.03237 36899 ft 486 kts 161°
2026-04-30 20:25 28.54910 -82.98589 36901 ft 484 kts 161°
2026-04-30 20:26 28.45708 -82.93984 36904 ft 482 kts 161°
2026-04-30 20:26 28.36484 -82.89385 36906 ft 482 kts 161°
2026-04-30 20:27 28.24206 -82.83260 36896 ft 481 kts 160°
2026-04-30 20:28 28.11979 -82.77185 36914 ft 480 kts 160°
2026-04-30 20:30 27.96470 -82.70543 36927 ft 471 kts 173°
2026-04-30 20:31 27.77127 -82.66952 36923 ft 470 kts 175°
2026-04-30 20:32 27.60959 -82.63841 36921 ft 471 kts 174°
2026-04-30 20:33 27.51279 -82.61907 36922 ft 472 kts 173°
2026-04-30 20:34 27.41718 -82.59167 36927 ft 472 kts 168°
2026-04-30 20:35 27.32178 -82.56224 36926 ft 473 kts 168°
2026-04-30 20:35 27.22645 -82.53384 36922 ft 470 kts 169°
2026-04-30 20:36 27.16316 -82.51517 36925 ft 473 kts 169°
2026-04-30 20:37 27.06792 -82.48727 36929 ft 471 kts 169°
2026-04-30 20:37 27.00472 -82.46872 36927 ft 469 kts 169°
2026-04-30 20:38 26.94148 -82.44911 36924 ft 473 kts 163°
2026-04-30 20:38 26.88335 -82.41436 36925 ft 476 kts 144°
2026-04-30 20:39 26.83281 -82.36794 36562 ft 465 kts 139°
2026-04-30 20:39 26.80874 -82.34403 36106 ft 458 kts 139°
2026-04-30 20:39 26.78528 -82.32061 35544 ft 455 kts 139°
2026-04-30 20:40 26.73806 -82.27402 34213 ft 451 kts 140°
2026-04-30 20:40 26.71436 -82.25098 33780 ft 444 kts 140°
2026-04-30 20:40 26.69120 -82.22862 33339 ft 437 kts 140°
2026-04-30 20:41 26.64586 -82.18507 32416 ft 427 kts 141°
2026-04-30 20:41 26.62327 -82.16343 31940 ft 423 kts 141°
2026-04-30 20:41 26.60110 -82.14224 31464 ft 419 kts 141°
2026-04-30 20:41 26.57905 -82.12119 30996 ft 417 kts 141°
2026-04-30 20:42 26.55676 -82.09996 30529 ft 425 kts 141°
2026-04-30 20:42 26.53407 -82.07838 30024 ft 434 kts 141°
2026-04-30 20:42 26.48902 -82.03432 29033 ft 427 kts 139°
2026-04-30 20:43 26.46694 -82.01196 28553 ft 421 kts 139°
2026-04-30 20:43 26.44564 -81.99026 28077 ft 417 kts 139°
2026-04-30 20:43 26.42419 -81.96842 27595 ft 412 kts 139°
2026-04-30 20:44 26.38247 -81.92609 26659 ft 404 kts 139°
2026-04-30 20:44 26.36154 -81.90494 26179 ft 400 kts 139°
2026-04-30 20:44 26.32076 -81.86390 25264 ft 393 kts 139°
2026-04-30 20:45 26.28048 -81.82347 24344 ft 387 kts 139°
2026-04-30 20:45 26.26072 -81.80354 23893 ft 384 kts 137°
2026-04-30 20:45 26.24238 -81.78178 23448 ft 381 kts 128°
2026-04-30 20:46 26.20382 -81.70641 22156 ft 371 kts 113°
2026-04-30 20:46 26.19300 -81.68068 21739 ft 369 kts 112°
2026-04-30 20:47 26.17133 -81.62929 20873 ft 367 kts 113°
2026-04-30 20:47 26.16034 -81.60371 20438 ft 366 kts 114°
2026-04-30 20:48 26.13842 -81.55312 19573 ft 363 kts 114°
2026-04-30 20:48 26.12735 -81.52766 19137 ft 361 kts 114°
2026-04-30 20:48 26.11651 -81.50279 18708 ft 359 kts 114°
2026-04-30 20:48 26.10568 -81.47798 18280 ft 358 kts 113°
2026-04-30 20:49 26.09491 -81.45329 17849 ft 356 kts 114°
2026-04-30 20:49 26.08401 -81.42832 17409 ft 355 kts 114°
2026-04-30 20:49 26.07331 -81.40382 16996 ft 351 kts 114°
2026-04-30 20:50 26.05220 -81.35550 16192 ft 346 kts 114°
2026-04-30 20:50 26.04171 -81.33135 15751 ft 344 kts 114°
2026-04-30 20:50 26.03140 -81.30759 15341 ft 341 kts 114°
2026-04-30 20:50 26.02109 -81.28394 14936 ft 339 kts 115°
2026-04-30 20:51 26.01090 -81.26069 14536 ft 337 kts 115°
2026-04-30 20:51 25.99061 -81.21433 13693 ft 331 kts 115°
2026-04-30 20:51 25.98064 -81.19145 13289 ft 329 kts 115°
2026-04-30 20:52 25.97077 -81.16876 12901 ft 326 kts 115°
2026-04-30 20:52 25.96089 -81.14607 12501 ft 324 kts 115°
2026-04-30 20:52 25.94141 -81.10160 11684 ft 319 kts 115°
2026-04-30 20:53 25.93165 -81.07935 11288 ft 316 kts 115°
2026-04-30 20:53 25.92214 -81.05767 10899 ft 313 kts 115°
2026-04-30 20:53 25.91267 -81.03604 10518 ft 311 kts 115°
2026-04-30 20:54 25.89556 -80.99264 9892 ft 299 kts 111°
2026-04-30 20:54 25.88775 -80.97163 9678 ft 292 kts 111°
2026-04-30 20:54 25.88002 -80.95097 9236 ft 293 kts 112°
2026-04-30 20:55 25.86432 -80.90980 8938 ft 288 kts 112°
2026-04-30 20:55 25.85634 -80.88902 8929 ft 295 kts 112°
2026-04-30 20:55 25.84832 -80.86814 8819 ft 290 kts 112°
2026-04-30 20:56 25.83270 -80.82758 8174 ft 284 kts 112°
2026-04-30 20:56 25.82501 -80.80761 7837 ft 281 kts 111°
2026-04-30 20:56 25.80983 -80.76820 7171 ft 276 kts 111°
2026-04-30 20:57 25.80225 -80.74856 6835 ft 274 kts 111°
2026-04-30 20:57 25.79481 -80.72927 6510 ft 271 kts 111°
2026-04-30 20:57 25.78755 -80.71004 6177 ft 268 kts 108°
2026-04-30 20:58 25.78328 -80.67057 5563 ft 257 kts 82°
2026-04-30 20:58 25.78519 -80.65093 5240 ft 257 kts 82°
2026-04-30 20:58 25.78662 -80.63088 4976 ft 263 kts 85°
2026-04-30 20:58 25.78745 -80.61075 4954 ft 259 kts 85°
2026-04-30 20:59 25.78899 -80.57107 4353 ft 244 kts 85°
2026-04-30 20:59 25.78983 -80.55319 4070 ft 220 kts 85°
2026-04-30 21:00 25.79119 -80.52241 3792 ft 191 kts 86°
2026-04-30 21:00 25.79246 -80.49367 3288 ft 176 kts 86°
2026-04-30 21:01 25.79351 -80.46896 2840 ft 150 kts 87°
2026-04-30 21:01 25.79403 -80.45741 2659 ft 150 kts 88°
2026-04-30 21:01 25.79502 -80.43401 2256 ft 150 kts 88°
2026-04-30 21:02 25.79552 -80.42239 2067 ft 152 kts 89°
2026-04-30 21:02 25.79604 -80.41074 1868 ft 150 kts 89°
2026-04-30 21:02 25.79654 -80.39932 1676 ft 149 kts 90°
2026-04-30 21:02 25.79700 -80.38779 1481 ft 147 kts 90°
2026-04-30 21:03 25.79750 -80.37641 1295 ft 147 kts 91°
2026-04-30 21:03 25.79799 -80.36520 1101 ft 146 kts 91°
2026-04-30 21:03 25.79848 -80.35392 918 ft 145 kts 90°
2026-04-30 21:03 25.79893 -80.34274 731 ft 143 kts 92°
2026-04-30 21:04 25.79937 -80.33181 549 ft 142 kts 91°
2026-04-30 21:04 25.80004 -80.32096 378 ft 141 kts 90°
2026-04-30 21:04 25.80085 -80.29966 59 ft 135 kts 92°
2026-04-30 21:05 25.80117 -80.29016 12 ft 106 kts 94°
2026-04-30 21:05 25.80133 -80.28455 12 ft 41 kts 86°
2026-04-30 21:05 25.80104 -80.28230 13 ft 20 kts 127°
2026-04-30 21:05 25.80019 -80.28159 13 ft 11 kts 154°
2026-04-30 21:06 25.79942 -80.28144 12 ft 11 kts 172°
2026-04-30 21:06 25.79881 -80.28129 12 ft 7 kts 170°
2026-04-30 21:06 25.79835 -80.28127 12 ft 3 kts 181°
2026-04-30 21:06 25.79833 -80.28127 12 ft 0 kts 181°